Regional Weather Roundup
Issued by NWS New Orleans/Baton Rouge, LA

Home | Current Version | Previous Version | Text Only | Print | Product List | Glossary On
Versions: 1 2 3 4 5 6 7 8 9 10 11 12 13 14 15 16 17 18 19 20 21 22 23 24 25 26 27 28 29 30 31 32 33 34 35 36 37 38 39 40 41 42 43 44 45 46 47 48 49 50
630
ASUS44 KLIX 301701
RWRLIX
NEW ORLEANS REGIONAL WEATHER ROUNDUP
NATIONAL WEATHER SERVICE NEW ORLEANS LA
1100 AM CST FRI JAN 30 2015

NOTE: "FAIR" INDICATES FEW OR NO CLOUDS BELOW 12,000 FEET WITH NO
      SIGNIFICANT WEATHER AND/OR OBSTRUCTIONS TO VISIBILITY.
      SKY/WX - SKY CONDITION AND SIGNIFICANT WEATHER.
      TMP - AIR TEMPERATURE.     DP    - DEWPOINT TEMPERATURE.
      RH  - RELATIVE HUMIDITY.   PRES  - PRESSURE.
      HI  - HEAT INDEX.          WCI   - WIND CHILL INDEX.

*  THESE STATIONS ARE NOT NWS OR FAA STATIONS AND ARE NOT UNDER
   NWS QUALITY CONTROL.

LAZ038-040-048-061>063-065>067-069-301800-
SOUTHEAST LOUISIANA

CITY           SKY/WX    TMP DP  RH WIND       PRES   REMARKS
N.O. AUDUBON   NOT AVBL
N.O. INTL ARPT PTSUNNY   52  38  58 N14       30.41S
N.O. LAKEFRONT MOSUNNY   54  38  54 N14       30.41S
N.O. DOWNTOWN* NOT AVBL
SLIDELL        MOSUNNY   54  35  48 N12       30.39F
BATON ROUGE    PTSUNNY   51  32  48 NE10      30.42F
BOOTHVILLE     SUNNY     53  43  68 NE14G23   30.38S
BELLE CHASSE   CLOUDY    55  38  52 NE13G21   30.39S
BOGALUSA*        N/A     53  33  46 NE10      30.43F
GALLIANO*      NOT AVBL
NEW ROADS*     NOT AVBL
GONZALES*      NOT AVBL
HAMMOND*       NOT AVBL
HOUMA*         NOT AVBL
PORT FOURCHON* SUNNY     54  45  71 NE21      30.41R

$$

MSZ070-080>082-301800-
SOUTHERN MISSISSIPPI

CITY           SKY/WX    TMP DP  RH WIND       PRES   REMARKS
MCCOMB         SUNNY     49  30  48 NE9       30.43F
GULFPORT       MOSUNNY   53  33  46 N13       30.38F
BILOXI         MOSUNNY   52  34  49 NE14G20   30.38F
PASCAGOULA     MOSUNNY   53  33  46 N16       30.38S
STENNIS ARPT*  SUNNY     52  28  40 N14G21    30.40S

$$

COASTAL OBSERVATIONS
LAKE AND NEARSHORE STATIONS

STATION/POSITION TIME  TEMP    WIND        PRES    WAVE
                       AIR SEA DIR/SP/G            HT/PER
                 (UTC) (F)     (DEG/KT/KT) (MB)    (FT/S)
PASCAGOULA       1600   49      20/ 12/ 18 1028.3
WAVELAND YACHT   1600   48      30/ 15/ 19 1028.5
GRAND ISLE       1600   54 62   40/ 15/ 21 1028.9
SOUTHWEST PASS   1600   54 46   20/ 21/ 23 1028.3
NEW CANAL        1600   49 55   40/ 16/ 18 1029.8
SHELL BEACH      1600   49 56   30/ 17/ 19 1029.1

OFFSHORE STATIONS

STATION/POSITION TIME  TEMP    WIND        PRES    WAVE
                       AIR SEA DIR/SP/G            HT/PER
                 (UTC) (F)     (DEG/KT/KT) (MB)    (FT/S)
64 S DAUPHIN ISL 1551   53 69   20/ 19/ 25 1027.9    6/ 6

$$




USA.gov is the U.S. government's official web portal to all federal, state and local government web resources and services.